Find Local Weather

World > North America > United States > California

Los Angeles, California Regional Weather

Lat: 34.04N, Lon: 118.3W
Wx Zone: CAZ041
Feedback
Expires:201804212000;;294952
ASUS46 KLOX 211913
RWRCA 

SOUTHERN CALIFORNIA WEATHER ROUNDUP
NATIONAL WEATHER SERVICE OXNARD CALIFORNIA
1200 PM PDT SAT APR 21 2018

NOTE: "FAIR" INDICATES FEW OR NO CLOUDS BELOW 12,000 FEET WITH NO 
SIGNIFICANT WEATHER AND/OR OBSTRUCTIONS TO VISIBILITY.

  -  STATIONS PRECEEDED BY AN ASTERISK (*) ARE NOT NWS OR FAA 
     STATIONS AND ARE NOT SUBJECT TO NWS AND FAA QUALITY CONTROL.


CAZ041-042-087-212000-
LA AND ORANGE COUNTY COASTAL AREAS

  
CITY           SKY/WX    TMP DP  RH WIND       PRES   REMARKS
L.A. DOWNTOWN  SUNNY     80  45  28 CALM      30.02F                  
L.A. AIRPORT   MOSUNNY   71  51  49 W13       30.04F                  
LONG BEACH     SUNNY     79  51  37 S7        30.03F                  

CITY           SKY/WX    TMP DP  RH WIND       PRES   REMARKS
AVALON           N/A     63 N/A N/A MISG        N/A                   
FULLERTON      SUNNY     82  44  26 VRB3      30.01F                  
*GETTY CENTER    N/A     75  50  41 S6          N/A                   
HAWTHORNE      SUNNY     74  53  48 W10       30.04F                  
*LEO CARRILLO    N/A     65  55  69 SW5         N/A                   
*LOS ALAMITOS  MOSUNNY   76  52  41 SW10      30.02F                  
*REDONDO BEACH   N/A     65  53  63 W6        30.03F                  
SANTA ANA      MOSUNNY   78  49  35 SW9       30.02F                  
STA MONICA APT SUNNY     71  48  43 SW9       30.04F                  
TORRANCE       MOSUNNY   73  52  46 W13       30.03F                  
*UCLA            N/A     73  46  38 S5        30.01S                  

$$


SKY/WX - Weather  TMP - Temperature  DP - Dewpoint  RH - Relative Humidity
WIND - Wind Direction/Speed PRES - Barometric Pressure